| time (UTC) | temp F | wind direction | speed MPH | gust MPH | rain 1hr in | rain 24hr in | rain mn in | humidity % | barometer mb |
| 20260505170057 | 84 | 88 | 1.0 | 5.0 | 0.00 | 0.00 | 0.00 | 37 | 1009.9 |
| 20260505170011 | 82 | 226 | 0.0 | 0.0 | 0.00 | 0.00 | 0.01 | 27 | 1008.2 |
| 20260505164554 | 83 | 120 | 2.0 | 8.0 | 0.00 | 0.00 | 0.00 | 38 | 1010.2 |
| 20260505164507 | 82 | 210 | 0.0 | 0.0 | 0.00 | 0.00 | 0.01 | 29 | 1008.5 |
| 20260505163053 | 84 | 117 | 1.0 | 3.0 | 0.00 | 0.00 | 0.00 | 38 | 1010.4 |
| 20260505163007 | 82 | 204 | 0.0 | 0.0 | 0.00 | 0.00 | 0.01 | 29 | 1008.6 |
| 20260505161551 | 83 | 68 | 0.0 | 4.0 | 0.00 | 0.00 | 0.00 | 39 | 1010.5 |
| 20260505161504 | 81 | 207 | 0.0 | 0.0 | 0.00 | 0.00 | 0.01 | 30 | 1008.8 |
| 20260505153057 | 78 | 211 | 0.0 | 0.0 | 0.00 | 0.00 | 0.01 | 35 | 1009.2 |
| 20260505153043 | 79 | 358 | 0.0 | 4.0 | 0.00 | 0.00 | 0.00 | 44 | 1011.0 |
| 20260505151553 | 77 | 197 | 0.0 | 0.0 | 0.00 | 0.00 | 0.01 | 36 | 1009.4 |
| 20260505151535 | 78 | 33 | 1.0 | 5.0 | 0.00 | 0.00 | 0.00 | 45 | 1011.2 |
| 20260505124521 | 67 | 203 | 0.0 | 0.0 | 0.00 | 0.00 | 0.01 | 50 | 1009.6 |
| 20260505124502 | 68 | 66 | 3.0 | 7.0 | 0.00 | 0.00 | 0.00 | 58 | 1011.4 |
| 20260505123104 | 67 | 59 | 2.0 | 5.0 | 0.00 | 0.00 | 0.00 | 61 | 1011.4 |
| 20260505123016 | 65 | 249 | 0.0 | 0.0 | 0.00 | 0.00 | 0.01 | 54 | 1009.5 |
| 20260505121556 | 65 | 60 | 0.0 | 4.0 | 0.00 | 0.00 | 0.00 | 64 | 1011.5 |
| 20260505121512 | 64 | 175 | 0.0 | 0.0 | 0.00 | 0.00 | 0.01 | 57 | 1009.6 |
| 20260505120109 | 64 | 65 | 0.0 | 3.0 | 0.00 | 0.00 | 0.00 | 66 | 1011.5 |
| 20260505120007 | 62 | 192 | 0.0 | 0.0 | 0.00 | 0.00 | 0.01 | 60 | 1009.6 |
| 20260505114547 | 62 | 63 | 0.0 | 2.0 | 0.00 | 0.00 | 0.00 | 69 | 1011.6 |
| 20260505114503 | 61 | 236 | 0.0 | 0.0 | 0.00 | 0.00 | 0.01 | 64 | 1009.7 |
| 20260505113059 | 60 | 162 | 0.0 | 0.0 | 0.00 | 0.00 | 0.01 | 67 | 1009.8 |
| 20260505113045 | 61 | 82 | 0.0 | 0.0 | 0.00 | 0.00 | 0.00 | 72 | 1011.7 |
| 20260505111554 | 59 | 190 | 0.0 | 0.0 | 0.00 | 0.00 | 0.01 | 69 | 1010.0 |
| 20260505111541 | 59 | 84 | 0.0 | 0.0 | 0.00 | 0.00 | 0.00 | 74 | 1011.9 |
| 20260505110104 | 59 | 84 | 0.0 | 0.0 | 0.00 | 0.00 | 0.00 | 75 | 1011.6 |
| 20260505101545 | 57 | 214 | 0.0 | 0.0 | 0.00 | 0.00 | 0.01 | 71 | 1009.6 |
| 20260505101537 | 57 | 94 | 0.0 | 0.0 | 0.00 | 0.00 | 0.00 | 77 | 1011.4 |
| 20260505100046 | 56 | 192 | 0.0 | 0.0 | 0.00 | 0.00 | 0.01 | 71 | 1009.7 |
| 20260505100037 | 56 | 89 | 0.0 | 0.0 | 0.00 | 0.00 | 0.00 | 78 | 1011.5 |
| 20260505094542 | 57 | 171 | 0.0 | 0.0 | 0.00 | 0.00 | 0.01 | 70 | 1009.0 |
| 20260505094535 | 56 | 86 | 0.0 | 0.0 | 0.00 | 0.00 | 0.00 | 77 | 1010.8 |
| 20260505093041 | 57 | 160 | 0.0 | 0.0 | 0.00 | 0.00 | 0.01 | 69 | 1008.7 |
| 20260505093034 | 56 | 86 | 0.0 | 0.0 | 0.00 | 0.00 | 0.00 | 77 | 1010.7 |
| 20260505091540 | 57 | 181 | 0.0 | 0.0 | 0.00 | 0.00 | 0.01 | 69 | 1008.9 |
| 20260505091531 | 56 | 75 | 0.0 | 0.0 | 0.00 | 0.00 | 0.00 | 76 | 1010.8 |
| 20260505090041 | 57 | 214 | 0.0 | 0.0 | 0.00 | 0.00 | 0.01 | 68 | 1008.9 |
| 20260505090035 | 56 | 79 | 0.0 | 0.0 | 0.00 | 0.00 | 0.00 | 76 | 1010.7 |
| 20260505084545 | 57 | 216 | 0.0 | 0.0 | 0.00 | 0.00 | 0.01 | 67 | 1008.8 |
| 20260505084534 | 56 | 79 | 0.0 | 0.0 | 0.00 | 0.00 | 0.00 | 76 | 1010.6 |
| 20260505083037 | 57 | 169 | 0.0 | 0.0 | 0.00 | 0.00 | 0.01 | 66 | 1009.1 |
| 20260505083030 | 57 | 91 | 0.0 | 0.0 | 0.00 | 0.00 | 0.00 | 75 | 1010.9 |
| 20260505081537 | 57 | 167 | 0.0 | 0.0 | 0.00 | 0.00 | 0.01 | 65 | 1008.8 |
| 20260505081526 | 57 | 94 | 0.0 | 0.0 | 0.00 | 0.00 | 0.00 | 74 | 1010.6 |
| 20260505080037 | 57 | 199 | 0.0 | 0.0 | 0.00 | 0.00 | 0.01 | 64 | 1008.7 |
| 20260505080028 | 57 | 80 | 0.0 | 0.0 | 0.00 | 0.00 | 0.00 | 73 | 1010.6 |
| 20260505074536 | 58 | 151 | 0.0 | 0.0 | 0.00 | 0.00 | 0.01 | 63 | 1008.9 |
| 20260505074523 | 57 | 80 | 0.0 | 0.0 | 0.00 | 0.00 | 0.00 | 72 | 1010.7 |
| 20260505073041 | 58 | 214 | 0.0 | 0.0 | 0.00 | 0.00 | 0.01 | 62 | 1008.8 |
| 20260505073023 | 58 | 81 | 0.0 | 0.0 | 0.00 | 0.00 | 0.00 | 71 | 1010.7 |
| 20260505071530 | 58 | 215 | 0.0 | 0.0 | 0.00 | 0.00 | 0.01 | 62 | 1008.9 |
| 20260505071522 | 58 | 82 | 0.0 | 0.0 | 0.00 | 0.00 | 0.00 | 70 | 1010.7 |
| 20260505070037 | 58 | 204 | 0.0 | 0.0 | 0.00 | 0.00 | 0.01 | 62 | 1008.9 |
| 20260505070022 | 58 | 81 | 0.0 | 0.0 | 0.00 | 0.00 | 0.00 | 70 | 1010.7 |
| 20260505064531 | 58 | 82 | 0.0 | 0.0 | 0.00 | 0.00 | 0.00 | 69 | 1010.6 |
| 20260505064526 | 58 | 191 | 0.0 | 0.0 | 0.00 | 0.00 | 0.01 | 62 | 1008.8 |
| 20260505063025 | 58 | 167 | 0.0 | 0.0 | 0.00 | 0.00 | 0.01 | 61 | 1008.8 |
| 20260505063020 | 58 | 82 | 0.0 | 0.0 | 0.00 | 0.00 | 0.00 | 69 | 1010.6 |
| 20260505061534 | 58 | 203 | 0.0 | 0.0 | 0.00 | 0.00 | 0.01 | 62 | 1009.0 |
| 20260505061518 | 58 | 82 | 0.0 | 0.0 | 0.00 | 0.00 | 0.00 | 70 | 1010.8 |
| 20260505060022 | 58 | 159 | 0.0 | 0.0 | 0.00 | 0.00 | 0.01 | 61 | 1009.1 |
| 20260505060017 | 57 | 82 | 0.0 | 0.0 | 0.00 | 0.00 | 0.00 | 70 | 1010.8 |
| 20260505054525 | 58 | 165 | 0.0 | 0.0 | 0.00 | 0.00 | 0.01 | 60 | 1009.1 |
| 20260505054523 | 58 | 82 | 0.0 | 0.0 | 0.00 | 0.00 | 0.00 | 68 | 1010.9 |
| 20260505053017 | 58 | 169 | 0.0 | 0.0 | 0.00 | 0.00 | 0.01 | 58 | 1009.1 |
| 20260505053010 | 58 | 82 | 0.0 | 0.0 | 0.00 | 0.00 | 0.00 | 67 | 1010.9 |
| 20260505051517 | 59 | 173 | 0.0 | 0.0 | 0.00 | 0.00 | 0.01 | 57 | 1009.2 |
| 20260505051509 | 59 | 82 | 0.0 | 0.0 | 0.00 | 0.00 | 0.00 | 66 | 1011.0 |
| 20260505041608 | 60 | 104 | 0.0 | 2.0 | 0.00 | 0.00 | 0.00 | 62 | 1011.2 |
| 20260505041559 | 60 | 158 | 0.0 | 0.0 | 0.00 | 0.00 | 0.00 | 54 | 1009.6 |
| 20260505040103 | 60 | 89 | 0.0 | 0.0 | 0.00 | 0.00 | 0.00 | 61 | 1011.3 |
| 20260505040054 | 60 | 164 | 0.0 | 0.0 | 0.00 | 0.00 | 0.00 | 52 | 1009.6 |
| 20260505034610 | 61 | 84 | 0.0 | 0.0 | 0.00 | 0.00 | 0.00 | 60 | 1011.3 |
| 20260505034550 | 61 | 162 | 0.0 | 0.0 | 0.00 | 0.00 | 0.00 | 51 | 1009.6 |
| 20260505033056 | 61 | 84 | 0.0 | 3.0 | 0.00 | 0.00 | 0.00 | 58 | 1011.4 |
| 20260505033050 | 62 | 152 | 0.0 | 0.0 | 0.00 | 0.00 | 0.00 | 50 | 1009.7 |
| 20260505031600 | 62 | 161 | 0.0 | 0.0 | 0.00 | 0.00 | 0.00 | 48 | 1009.7 |
| 20260505031554 | 62 | 67 | 0.0 | 2.0 | 0.00 | 0.00 | 0.00 | 57 | 1011.4 |
| 20260505030049 | 63 | 162 | 0.0 | 0.0 | 0.00 | 0.00 | 0.00 | 47 | 1009.9 |
| 20260505024608 | 63 | 84 | 0.0 | 1.0 | 0.00 | 0.00 | 0.00 | 54 | 1011.5 |
| 20260505024557 | 63 | 161 | 0.0 | 0.0 | 0.00 | 0.00 | 0.00 | 45 | 1009.9 |
| 20260505023053 | 63 | 91 | 0.0 | 2.0 | 0.00 | 0.00 | 0.00 | 53 | 1011.5 |
| 20260505023048 | 64 | 153 | 0.0 | 0.0 | 0.00 | 0.00 | 0.00 | 45 | 1010.0 |
| 20260505021553 | 64 | 72 | 0.0 | 3.0 | 0.00 | 0.00 | 0.00 | 52 | 1011.6 |
| 20260505020105 | 64 | 97 | 0.0 | 6.0 | 0.00 | 0.00 | 0.00 | 51 | 1011.5 |
| 20260505020047 | 65 | 184 | 0.0 | 0.0 | 0.00 | 0.00 | 0.00 | 42 | 1010.0 |
| 20260505014603 | 65 | 158 | 0.0 | 0.0 | 0.00 | 0.00 | 0.00 | 41 | 1009.9 |
| 20260505014552 | 65 | 91 | 0.0 | 2.0 | 0.00 | 0.00 | 0.00 | 50 | 1011.4 |
| 20260505013051 | 66 | 74 | 0.0 | 0.0 | 0.00 | 0.00 | 0.00 | 47 | 1011.4 |
| 20260505013042 | 66 | 191 | 0.0 | 0.0 | 0.00 | 0.00 | 0.00 | 38 | 1009.9 |
| 20260505011550 | 68 | 141 | 0.0 | 0.0 | 0.00 | 0.00 | 0.00 | 31 | 1009.6 |
| 20260505010106 | 68 | 73 | 0.0 | 1.0 | 0.00 | 0.00 | 0.00 | 39 | 1010.8 |
| 20260505010040 | 68 | 219 | 0.0 | 0.0 | 0.00 | 0.00 | 0.00 | 30 | 1009.3 |
| 20260505004601 | 68 | 77 | 0.0 | 2.0 | 0.00 | 0.00 | 0.00 | 39 | 1010.6 |
| 20260505004542 | 68 | 182 | 0.0 | 0.0 | 0.00 | 0.00 | 0.00 | 29 | 1009.1 |
| 20260505003052 | 69 | 115 | 0.0 | 2.0 | 0.00 | 0.00 | 0.00 | 37 | 1010.5 |
| 20260505003040 | 69 | 173 | 0.0 | 0.0 | 0.00 | 0.00 | 0.00 | 28 | 1009.0 |
| 20260505001547 | 69 | 79 | 1.0 | 4.0 | 0.00 | 0.00 | 0.00 | 37 | 1010.3 |
| 20260505001539 | 69 | 239 | 0.0 | 0.0 | 0.00 | 0.00 | 0.00 | 27 | 1008.7 |
| 20260505000050 | 70 | 230 | 0.0 | 0.0 | 0.00 | 0.00 | 0.00 | 28 | 1008.6 |
| 20260505000047 | 70 | 82 | 0.0 | 4.0 | 0.00 | 0.00 | 0.00 | 37 | 1010.0 |
| 20260504234547 | 70 | 117 | 0.0 | 2.0 | 0.00 | 0.00 | 0.00 | 36 | 1009.8 |
| 20260504233055 | 71 | 235 | 0.0 | 0.0 | 0.00 | 0.00 | 0.00 | 27 | 1008.1 |
| 20260504233048 | 71 | 83 | 0.0 | 4.0 | 0.00 | 0.00 | 0.00 | 35 | 1009.6 |
| 20260504231617 | 71 | 67 | 1.0 | 7.0 | 0.00 | 0.00 | 0.00 | 35 | 1009.4 |
| 20260504231538 | 71 | 191 | 0.0 | 0.0 | 0.00 | 0.00 | 0.00 | 26 | 1008.0 |
| 20260504230045 | 72 | 63 | 3.0 | 6.0 | 0.00 | 0.00 | 0.00 | 34 | 1009.3 |
| 20260504230038 | 71 | 201 | 0.0 | 0.0 | 0.00 | 0.00 | 0.00 | 26 | 1007.8 |
| 20260504224545 | 72 | 70 | 1.0 | 5.0 | 0.00 | 0.00 | 0.00 | 34 | 1009.2 |
| 20260504224539 | 72 | 231 | 0.0 | 0.0 | 0.00 | 0.00 | 0.00 | 26 | 1007.8 |
| 20260504223053 | 72 | 189 | 0.0 | 0.0 | 0.00 | 0.00 | 0.00 | 26 | 1008.0 |
| 20260504223046 | 72 | 65 | 0.0 | 5.0 | 0.00 | 0.00 | 0.00 | 33 | 1009.3 |
| 20260504221608 | 73 | 70 | 2.0 | 5.0 | 0.00 | 0.00 | 0.00 | 33 | 1009.4 |
| 20260504221538 | 72 | 205 | 0.0 | 0.0 | 0.00 | 0.00 | 0.00 | 25 | 1008.0 |
| 20260504220040 | 73 | 94 | 2.0 | 6.0 | 0.00 | 0.00 | 0.00 | 32 | 1009.5 |
| 20260504220034 | 73 | 215 | 0.0 | 0.0 | 0.00 | 0.00 | 0.00 | 25 | 1008.1 |
| 20260504214539 | 74 | 181 | 1.0 | 6.0 | 0.00 | 0.00 | 0.00 | 32 | 1009.6 |
| 20260504214533 | 73 | 246 | 0.0 | 0.0 | 0.00 | 0.00 | 0.00 | 24 | 1008.1 |
| 20260504213138 | 74 | 271 | 2.0 | 8.0 | 0.00 | 0.00 | 0.00 | 32 | 1009.8 |
| 20260504213045 | 73 | 300 | 0.0 | 0.0 | 0.00 | 0.00 | 0.00 | 24 | 1008.3 |
| 20260504211536 | 74 | 340 | 2.0 | 5.0 | 0.00 | 0.00 | 0.00 | 31 | 1009.9 |
| 20260504211534 | 73 | 195 | 0.0 | 0.0 | 0.00 | 0.00 | 0.00 | 24 | 1008.3 |
| 20260504210035 | 74 | 124 | 2.0 | 8.0 | 0.00 | 0.00 | 0.00 | 31 | 1009.8 |
| 20260504210033 | 73 | 272 | 0.0 | 0.0 | 0.00 | 0.00 | 0.00 | 24 | 1008.3 |
| 20260504204541 | 74 | 244 | 0.0 | 0.0 | 0.00 | 0.00 | 0.00 | 23 | 1008.2 |
| 20260504204536 | 74 | 60 | 3.0 | 8.0 | 0.00 | 0.00 | 0.00 | 30 | 1009.8 |
| 20260504203034 | 75 | 110 | 1.0 | 8.0 | 0.00 | 0.00 | 0.00 | 30 | 1009.8 |
| 20260504203026 | 74 | 269 | 0.0 | 0.0 | 0.00 | 0.00 | 0.00 | 23 | 1008.1 |
| 20260504201531 | 75 | 72 | 2.0 | 6.0 | 0.00 | 0.00 | 0.00 | 30 | 1010.0 |
| 20260504201523 | 74 | 220 | 0.0 | 0.0 | 0.00 | 0.00 | 0.00 | 23 | 1008.4 |
| 20260504200028 | 76 | 24 | 0.0 | 6.0 | 0.00 | 0.00 | 0.00 | 31 | 1010.0 |
| 20260504200023 | 74 | 231 | 0.0 | 0.0 | 0.00 | 0.00 | 0.00 | 24 | 1008.4 |
| 20260504194526 | 76 | 70 | 1.0 | 4.0 | 0.00 | 0.00 | 0.00 | 30 | 1010.1 |
| 20260504194517 | 73 | 177 | 0.0 | 0.0 | 0.00 | 0.00 | 0.00 | 25 | 1008.5 |
| 20260504193022 | 75 | 54 | 2.0 | 7.0 | 0.00 | 0.00 | 0.00 | 31 | 1010.2 |
| 20260504193015 | 73 | 227 | 0.0 | 0.0 | 0.00 | 0.00 | 0.00 | 24 | 1008.6 |
| 20260504191519 | 74 | 91 | 0.0 | 6.0 | 0.00 | 0.00 | 0.00 | 30 | 1010.4 |
| 20260504191513 | 73 | 172 | 0.0 | 0.0 | 0.00 | 0.00 | 0.00 | 24 | 1008.7 |
| 20260504190020 | 74 | 138 | 3.0 | 10.0 | 0.00 | 0.00 | 0.00 | 30 | 1010.7 |
| 20260504190015 | 73 | 292 | 0.0 | 0.0 | 0.00 | 0.00 | 0.00 | 23 | 1009.1 |
| 20260504184529 | 74 | 197 | 4.0 | 7.0 | 0.00 | 0.00 | 0.00 | 30 | 1010.9 |
| 20260504184511 | 73 | 213 | 0.0 | 0.0 | 0.00 | 0.00 | 0.00 | 23 | 1009.1 |
| 20260504183012 | 74 | 101 | 2.0 | 9.0 | 0.00 | 0.00 | 0.00 | 31 | 1010.9 |
| 20260504183008 | 73 | 178 | 0.0 | 0.0 | 0.00 | 0.00 | 0.00 | 23 | 1009.1 |
| 20260504181512 | 73 | 233 | 0.0 | 0.0 | 0.00 | 0.00 | 0.00 | 24 | 1009.6 |
| 20260504181508 | 74 | 47 | 1.0 | 9.0 | 0.00 | 0.00 | 0.00 | 32 | 1011.3 |
| 20260504180008 | 73 | 214 | 0.0 | 0.0 | 0.00 | 0.00 | 0.00 | 24 | 1009.6 |
| 20260504180006 | 73 | 337 | 2.0 | 6.0 | 0.00 | 0.00 | 0.00 | 32 | 1011.3 |
| 20260504174505 | 72 | 313 | 0.0 | 0.0 | 0.00 | 0.00 | 0.00 | 25 | 1009.9 |
| 20260504173002 | 72 | 201 | 1.0 | 10.0 | 0.00 | 0.00 | 0.00 | 33 | 1011.7 |
| 20260504171604 | 72 | 18 | 3.0 | 6.0 | 0.00 | 0.00 | 0.00 | 33 | 1012.0 |
| 20260504171502 | 71 | 278 | 0.0 | 0.0 | 0.00 | 0.00 | 0.00 | 26 | 1010.1 |